This is the latest recevied weather packets stored in our database for station/object SQ9SMC-13. If no packets are shown the sender has not sent any weather packets the latest 10 day(s).
| Time | Temp. | Humidity | Pressure | Rain* | Wind** | Luminosity | Snow |
|---|---|---|---|---|---|---|---|
| 1777423503 | -3.33° C | 87% | 1026.1 hPa | 0 mm | - | 0 W/m² | - |
| 1777423205 | -3.33° C | 86% | 1025.8 hPa | 0 mm | - | 0 W/m² | - |
| 1777422905 | -2.78° C | 85% | 1026 hPa | 0 mm | - | 0 W/m² | - |
| 1777422603 | -2.78° C | 85% | 1025.9 hPa | 0 mm | - | 0 W/m² | - |
| 1777422303 | -2.78° C | 85% | 1025.9 hPa | 0 mm | - | 0 W/m² | - |
| 1777422004 | -2.78° C | 85% | 1026.1 hPa | 0 mm | - | 0 W/m² | - |
| 1777421703 | -2.22° C | 86% | 1026 hPa | 0 mm | - | 0 W/m² | - |
| 1777421403 | -2.22° C | 88% | 1025.9 hPa | 0 mm | - | 0 W/m² | - |
| 1777421105 | -2.78° C | 89% | 1025.9 hPa | 0 mm | - | 0 W/m² | - |
| 1777420803 | -3.33° C | 90% | 1026 hPa | 0 mm | - | 0 W/m² | - |
| 1777420505 | -3.33° C | 90% | 1026.1 hPa | 0 mm | - | 0 W/m² | - |
| 1777420203 | -3.33° C | 91% | 1025.7 hPa | 0 mm | - | 0 W/m² | - |
| 1777419904 | -3.33° C | 91% | 1025.9 hPa | 0 mm | - | 0 W/m² | - |
| 1777419606 | -3.89° C | 91% | 1025.8 hPa | 0 mm | - | 0 W/m² | - |
| 1777419303 | -3.89° C | 90% | 1025.7 hPa | 0 mm | - | 0 W/m² | - |
| 1777419004 | -3.33° C | 90% | 1025.8 hPa | 0 mm | - | 0 W/m² | - |
| 1777418703 | -3.33° C | 90% | 1025.7 hPa | 0 mm | - | 0 W/m² | - |
| 1777418407 | -3.33° C | 90% | 1025.8 hPa | 0 mm | - | 0 W/m² | - |
| 1777418105 | -3.33° C | 89% | 1025.7 hPa | 0 mm | - | 0 W/m² | - |
| 1777417802 | -3.33° C | 89% | 1025.7 hPa | 0 mm | - | 0 W/m² | - |
| 1777417503 | -3.33° C | 89% | 1025.7 hPa | 0 mm | - | 0 W/m² | - |
| 1777417204 | -3.33° C | 88% | 1025.9 hPa | 0 mm | - | 0 W/m² | - |
| 1777416903 | -3.33° C | 88% | 1025.6 hPa | 0 mm | - | 0 W/m² | - |
| 1777416604 | -2.78° C | 88% | 1025.7 hPa | 0 mm | - | 0 W/m² | - |
| 1777416304 | -2.78° C | 87% | 1025.8 hPa | 0 mm | - | 0 W/m² | - |
* Rain latest hour (hover to see other rain measurements)
** Current wind speed in m/s (hover to see current wind gust speed)